Regional Weather Roundup
Issued by NWS

Home | Current Version | Previous Version | Text Only | Print | Product List | Glossary Off
Versions: 1 2 3 4 5 6 7 8 9 10 11 12 13 14 15 16 17 18 19 20 21 22 23 24 25 26 27 28 29 30 31 32 33 34 35 36 37 38 39 40 41 42 43 44 45 46 47 48 49 50

000
ASUS43 KLOT 150108
RWRIL

ILLINOIS REGIONAL WEATHER ROUNDUP
NATIONAL WEATHER SERVICE CHICAGO/ROMEOVILLE IL
700 PM CST THU DEC 14 2017

NOTE: "FAIR" INDICATES FEW OR NO CLOUDS BELOW 12,000 FEET WITH NO
SIGNIFICANT WEATHER AND/OR OBSTRUCTIONS TO VISIBILITY.

* THESE STATIONS ARE NOT UNDER NWS QUALITY CONTROL. THEY ALSO MAY NOT
  REPORT WEATHER SUCH AS PRECIPITATION OR FOG.

ILZ001-002-007-009-015-016-024-150200-
NORTHWEST ILLINOIS

CITY           SKY/WX    TMP DP  RH WIND       PRES   REMARKS
MOLINE         CLOUDY    27  17  66 SW7       30.09S WCI  19
STERLING*      MOCLDY    20  12  71 CALM      30.09S
SAVANNA*       CLOUDY    26  17  66 SW9       30.08S WCI  17
$$

ILZ003-004-008-010-011-017-018-150200-
NORTH CENTRAL ILLINOIS

CITY           SKY/WX    TMP DP  RH WIND       PRES   REMARKS
ROCKFORD       PTCLDY    19  10  68 S3        30.08F
FREEPORT*      CLEAR     15   8  75 S6        30.07F WCI   6
ROCHELLE*      CLEAR     14   8  78 SW7       30.08S WCI   4
DE KALB*       CLEAR     19  10  67 SW6       30.07S WCI  11
PERU*          CLEAR     17   9  68 W3        30.10S
$$

ILZ005-006-012>014-019>023-150200-
NORTHEAST ILLINOIS

CITY           SKY/WX    TMP DP  RH WIND       PRES   REMARKS
CHICAGO-OHARE  PTCLDY    21  11  65 W3        30.07S
CHICAGO-MIDWAY PTCLDY    23  10  57 NW5       30.08S WCI  17
AURORA         CLEAR     17  10  74 SW5       30.08S WCI  10
LANSING*       PTCLDY    22  13  67 W3        30.09R
JOLIET*        CLEAR     22  11  62 CALM      30.10R
WAUKEGAN       CLEAR     13   8  81 SW3       30.05F
DUPAGE AIRPORT CLEAR     15  11  83 S3        30.06S
KANKAKEE*      CLOUDY    22  11  61 NW5       30.10R WCI  16
WHEELING       CLEAR     23  11  60 CALM      30.08F
MORRIS*        CLEAR     18   8  65 NW6       30.09R WCI  10
ROMEOVILLE*    CLEAR     21  11  64 CALM      30.09R
NORTHERLY ISL    N/A     25   9  50 W8          N/A  WCI  16
$$

LMZ740>746-150200-
SOUTHERN LAKE MICHIGAN

STATION/POSITION SKY/WX   TEMP    WIND        PRES    VSBY  WAVE
                          AIR SEA DIR/SP/G                  HT/PER
                          (F)     (DEG/KT/KT) (MB)    (MI)  (FT/S)
HARRISON CRIB              26     280/ 11/ 13   N/A
BURNHAM HARBOR             25     280/  5/  9   N/A
CALUMET HARBOR             24     280/  3/  5 1017.9R
BURNS HARBOR               26     220/  6/  9 1019.0
MICHIGAN CITY              25     170/  6/  7   N/A
$$

ILZ025>027-034>036-040-047-049-050-058-095>099-150200-
WEST-CENTRAL ILLINOIS

CITY           SKY/WX    TMP DP  RH WIND       PRES   REMARKS
QUINCY         CLOUDY    28  18  66 NW3       30.10S
GALESBURG*     CLOUDY    28  20  73 W6        30.10S WCI  21
MACOMB*        CLOUDY    29  18  63 W7        30.12S WCI  22
JACKSONVILLE*  CLOUDY    28  16  61 W6        30.12R WCI  21
PITTSFIELD*    CLOUDY    29  19  65 W3        30.13R
$$

ILZ028>032-037-038-041>044-048-051>054-059>061-150200-
CENTRAL ILLINOIS

CITY           SKY/WX    TMP DP  RH WIND       PRES   REMARKS
PONTIAC        CLEAR     22  11  62 NW5       30.10S WCI  16
BLOOMINGTON    CLEAR     22  13  68 N6        30.10R WCI  14
DECATUR        CLOUDY    26  14  60 NW6       30.10R WCI  19
PEORIA         PTCLDY    25  13  60 CALM      30.11R
LACON*         CLEAR     19  11  72 CALM      30.11R
LINCOLN*       PTCLDY    28  18  67 CALM      30.11R
SPRINGFIELD    CLOUDY    29  18  63 W3        30.12R
TAYLORVILLE    CLOUDY    28  17  64 W7        30.11S WCI  20
$$

ILZ033-039-045-046-055>057-062-063-150200-
EAST-CENTRAL ILLINOIS

CITY           SKY/WX    TMP DP  RH WIND       PRES   REMARKS
CHAMPAIGN      CLOUDY    26  16  65 W5        30.09R WCI  20
DANVILLE*      CLOUDY    28  17  65 CALM      30.06R
RANTOUL*       CLOUDY    26  17  71 W3        30.09R
MATTOON        CLOUDY    28  19  69 CALM      30.08R
PARIS*         CLOUDY    29  21  71 W5        30.10R WCI  24
$$

ILZ079-100>102-150200-
SOUTHWEST ILLINOIS

CITY           SKY/WX    TMP DP  RH WIND       PRES   REMARKS
ALTON          CLOUDY    30  19  64 NW6       30.13R WCI  24
BELLEVILLE     CLOUDY    31  18  59 NW3       30.11R
CAHOKIA*       CLOUDY    32  19  58 N7        30.13R WCI  26
SPARTA*        CLOUDY    31  22  69 N3        30.14R
$$

ILZ064>066-069>071-074>076-080>082-084>086-088>090-092>094-150200-
SOUTH-CENTRAL ILLINOIS

CITY           SKY/WX    TMP DP  RH WIND       PRES   REMARKS
CARBONDALE     CLOUDY    31  22  69 NW3       30.12R
CAIRO*         CLOUDY    33  23  67 CALM      30.12R
EFFINGHAM*     CLOUDY    31  22  71 CALM      30.13R
MARION         CLOUDY    34  19  55 N8        30.12R WCI  27
MT. VERNON     CLOUDY    32  21  64 NW3       30.12R
CENTRALIA*     CLOUDY    32  22  65 W8        30.11R WCI  25
SALEM*         CLOUDY    32  21  63 NW3       30.12R
METROPOLIS*    CLOUDY    33  22  63 N5        30.12R WCI  29
$$

ILZ067-068-072-073-078-083-087-091-150200-
SOUTHEAST ILLINOIS

CITY           SKY/WX    TMP DP  RH WIND       PRES   REMARKS
LAWRENCEVILLE  CLOUDY    32  21  64 CALM      30.11R
FLORA*         CLOUDY    33  22  66 CALM      30.12R
FAIRFIELD*     CLOUDY    32  22  67 CALM      30.11R
HARRISBURG*    CLOUDY    32  23  68 CALM      30.12R
ROBINSON*      CLOUDY    28  22  79 W5        30.11R WCI  23
CARMI*         CLOUDY    31  23  71 CALM      30.10S
$$

ABBREVIATIONS USED IN REMARKS
   TC - TEMPERATURE IN CELSIUS
  WCI - WIND CHILL INDEX
   HX - HEAT INDEX
  VSB - VISIBILITY
$$





USA.gov is the U.S. government's official web portal to all federal, state and local government web resources and services.